User: anonymous   Login
Location: Hopkins Observatory
(42.6965°N, 73.1843°W)
Time: 06:48:54
(UTC-05:00)
Language:

RS-15 - Orbit

View from above orbital plane
View from above orbital plane
View from above satellite
View from above satellite

Ground track
Ground track

The orbit data is extracted from the following two-line orbital elements,

1 23439U 94085A   16344.94678168 -.00000045 +00000-0 -72128-4 0  9999
2 23439 064.8125 165.2520 0167427 277.9878 238.1748 11.27565235904075
Epoch (UTC): 09 December 2016 22:43:21
Eccentricity: 0.0167427
inclination: 64.8125°
perigee height: 1882 km
apogee height: 2163 km
right ascension of ascending node: 165.2520°
argument of perigee: 277.9878°
revolutions per day: 11.27565235
mean anomaly at epoch: 238.1748°
orbit number at epoch: 90407

The dashed part of the orbit path shows where the satellite is in the earth's shadow,  

DLR